THORAD DELTA 1 DEB, 8305

Orbit data source: Space-Track

THORAD DELTA 1 DEB, 8305 is space debris in SSO originally from a launch on Fri, 15 Nov 1974 UTC launched from the Air Force Western Test Range (AFWTR). Debris objects in space refer to the collection of defunct objects orbiting the Earth. Examples of debris include non-operational satellites, rocket bodies, and fragments generated from explosions, collisions, or faulty payload assembly.

Loading next visibility...
Identifier
8305, 1974-089BN
Orbit
SSO
Country
Flag of USUS
Related business
Manufacturer
Unknown
Mission
Spacecraft
Bus & Motor
Unknown
Mass
Unknown
Launch date (UTC)
1974-11-15 (52 years ago)
Launch vehicle
Unknown
Launch site
Air Force Western Test Range (AFWTR)
Object type
Payload
Rocket body
Debris
Shape & HBR
Unknown shape, 0.2 m
Radar Cross Section
Medium (>0.1 m² and <1 m²)

Expand to show TLE details & history
Last TLE update: 2 days ago

TLE from 2 days ago
0 THORAD DELTA 1 DEB
1 08305U 74089BN  26171.20124824 -.00000030  00000-0  86247-4 0  9999
2 08305 101.4318  14.8839 0092329 242.8556 244.6299 12.35207016325458
Epoch: 2026-06-20T04:49Z
TLE epoch observation values (Epoch: 2026-06-20T04:49:47.847Z)
Latitude
52.05101°
Longitude
-131.03102°
Altitude
1,567.028 km
Speed
7.075 km/s
True Right ascension
13h 59m 21s
True Declination
51° 54' 04"
Sunlit
Object was in daylight at epoch
Visualization orbit readout
Latitude
Unknown
Longitude
Unknown
Altitude
Unknown
Speed
Unknown
Apparent Right ascension
Unknown
Apparent Declination
Unknown
Sunlit
N/A
Visualization observer readout
Local Sidereal Time
01:06:56
Azimuth
Unknown
Elevation
Unknown
Doppler factor
Unknown
Orbital elements
Apogee altitude
1,597.499 km
Perigee altitude
1,451.57 km
Semi-major axis
7,902.672 km
Eccentricity
0.00923
Inclination
101.4318°
RAAN
14.8839°
Arg. of periapsis
242.8556°
True anomaly
243.67867°
Mean anomaly
244.6299°
Eccentric anomaly
244.15381°
Mean motion
3.08946 °/min
Orbital period
116.53 mins
BSTAR
0.000086247
Loading maneuver chart data...
Computing Atmospheric mass density...

Documentation

Showing up to 5 results
|